Stations météo

réclame
Mon MeteoGroup
Svenska Hogarna A, Suède (2498): Température de l'air & dewpoint: 15.01.2018 13:00:00 - 21.01.2018 13:00:00 (CET)Svenska Hogarna A, Suède (2498): Vitesse du vent & gusts: 15.01.2018 13:00:00 - 21.01.2018 13:00:00 (CET)Svenska Hogarna A, Suède (2498): Direction du vent: 15.01.2018 13:00:00 - 21.01.2018 13:00:00 (CET)Svenska Hogarna A, Suède (2498): reduced air pressure: 15.01.2018 13:00:00 - 21.01.2018 13:00:00 (CET)Svenska Hogarna A, Suède (2498): visibility: 15.01.2018 13:00:00 - 21.01.2018 13:00:00 (CET)Svenska Hogarna A, Suède (2498): Quantités de précipitations: 15.01.2018 13:00:00 - 21.01.2018 13:00:00 (CET)
Date & Time tt [°C] td [°C] ff [km/h] ff [knt] fx [km/h] fx [knt] dd ppp [hPa] vv [km] rr [mm]
21.01.2018 13:00:00 0,0 -5,6 9 5 14 8 NW 1014,8 41 0,0
21.01.2018 12:00:00 0,3 -4,5 8 4 13 7 NW 1014,7 31 0,0
21.01.2018 11:00:00 -0,5 -4,7 5 3 10 6 NNW 1014,6 30 0,0
21.01.2018 10:00:00 -0,2 -4,1 5 3 16 9 NNE 1014,3 33 0,0
21.01.2018 09:00:00 -0,6 -3,8 11 6 17 9 NNE 1013,6 33 0,0
21.01.2018 08:00:00 -0,3 -4,0 11 6 16 9 NNE 1013,1 39 0,0
21.01.2018 07:00:00 -0,3 -3,8 10 5 17 9 N 1012,6 47 0,0
21.01.2018 06:00:00 -0,2 -3,6 11 6 19 10 NNE 1012,2 35 0,0
21.01.2018 05:00:00 -0,2 -2,9 13 7 20 11 NE 1011,8 40 0,0
21.01.2018 04:00:00 0,5 -2,2 15 8 19 11 NNE 1011,6 34 0,4
21.01.2018 03:00:00 0,3 -2,1 9 5 22 12 NW 1011,2 7 0,3
21.01.2018 02:00:00 -0,1 -2,8 18 10 28 15 NW 1010,9 47 0,0
21.01.2018 01:00:00 1,0 -3,0 12 7 15 8 NE 1010,6 43 0,0
21.01.2018 00:00:00 0,8 -3,1 11 6 18 10 NE 1010,2 50 0,0
20.01.2018 23:00:00 0,8 -2,9 7 4 12 7 ENE 1010,1 40 0,0
20.01.2018 22:00:00 0,9 -3,6 5 3 16 9 NNE 1009,9 48 0,0
20.01.2018 21:00:00 0,8 -4,0 7 4 11 6 NE 1009,7 40 0,0
20.01.2018 20:00:00 1,0 -4,8 1 1 5 3 E 1009,4 50 0,0
20.01.2018 19:00:00 1,1 -5,0 6 3 9 5 E 1009,4 40 0,0
20.01.2018 18:00:00 1,1 -5,0 4 2 8 5 ESE 1009,2 48 0,0
20.01.2018 17:00:00 0,9 -4,9 6 4 11 6 ESE 1009,1 45 0,0
20.01.2018 16:00:00 0,9 -4,9 7 4 11 6 ESE 1009,0 45 0,0
20.01.2018 15:00:00 0,8 -4,8 10 5 13 7 SE 1008,8 45 0,0
20.01.2018 14:00:00 1,4 -3,9 8 4 16 9 SE 1008,7 41 0,0
20.01.2018 13:00:00 1,4 -3,1 15 8 19 10 ESE 1008,8 45 0,0
20.01.2018 12:00:00 1,0 -3,7 10 6 16 9 ESE 1009,0 49 0,0
20.01.2018 11:00:00 1,7 -3,6 12 6 18 10 ESE 1009,2 47 0,0
20.01.2018 10:00:00 1,4 -3,9 12 7 16 9 ESE 1009,0 33 0,0
20.01.2018 09:00:00 0,6 -3,7 11 6 16 8 ESE 1008,9 40 0,0
20.01.2018 08:00:00 0,6 -3,7 11 6 19 10 ESE 1008,5 49 0,0
20.01.2018 07:00:00 0,5 -2,9 14 7 19 11 E 1008,5 39 0,0
20.01.2018 06:00:00 0,1 -3,6 10 6 16 8 E 1008,4 43 0,0
20.01.2018 05:00:00 -0,2 -3,9 9 5 12 6 E 1008,1 43 0,0
20.01.2018 04:00:00 0,3 -3,6 5 3 10 6 E 1008,3 45 0,0
20.01.2018 03:00:00 0,1 -4,0 8 4 15 8 E 1008,5 40 0,0
20.01.2018 02:00:00 -0,6 -4,3 10 5 15 8 ENE 1008,4 41 0,0
20.01.2018 01:00:00 -0,4 -4,8 10 6 18 10 E 1008,4 44 0,0
20.01.2018 00:00:00 -1,0 -5,6 11 6 18 10 ENE 1008,1 46 0,0
19.01.2018 23:00:00 -1,0 -6,2 14 7 22 12 ENE 1007,9 43 0,0
19.01.2018 22:00:00 -0,7 -6,1 15 8 22 12 ENE 1007,7 46 0,0
19.01.2018 21:00:00 -1,1 -6,8 13 7 23 12 ENE 1007,5 44 0,0
19.01.2018 20:00:00 -0,7 -6,9 17 9 22 12 ENE 1007,0 48 0,0
19.01.2018 19:00:00 -0,7 -6,9 16 9 23 12 ENE 1006,6 44 0,0
19.01.2018 18:00:00 -0,7 -7,1 13 7 19 11 NE 1006,6 48 0,0
19.01.2018 17:00:00 -0,8 -7,0 11 6 17 9 NE 1006,4 39 0,0
19.01.2018 16:00:00 -0,8 -7,2 11 6 19 11 NE 1006,0 29 0,0
19.01.2018 15:00:00 -0,5 -7,1 4 2 18 10 NNE 1005,6 44 0,0
19.01.2018 14:00:00 -0,5 -6,5 11 6 20 11 NE 1005,1 39 0,0
19.01.2018 13:00:00 -0,5 -6,7 11 6 21 12 NE 1004,5 50 0,0
19.01.2018 12:00:00 -0,1 -6,7 10 5 18 10 NNE 1004,0 43 0,0
19.01.2018 11:00:00 0,2 -6,7 8 5 16 9 NE 1003,6 38 0,0
19.01.2018 10:00:00 -0,3 -7,3 9 5 15 8 NE 1003,0 33 0,0
19.01.2018 09:00:00 -0,4 -7,0 8 4 17 9 NNE 1002,4 35 0,0
19.01.2018 08:00:00 -0,7 -7,1 10 5 21 11 NNE 1001,8 46 0,0
19.01.2018 07:00:00 -0,9 -6,9 16 9 21 11 NE 1001,1 37 0,0
19.01.2018 06:00:00 -1,0 -6,5 14 8 22 12 NE 1000,6 40 0,0
19.01.2018 05:00:00 -1,0 -6,5 15 8 27 14 NE 1000,0 43 0,0
19.01.2018 04:00:00 -1,0 -6,7 16 9 22 12 NE 999,6 28 0,0
19.01.2018 03:00:00 -1,0 -7,4 15 8 21 11 NE 999,3 50 0,0
19.01.2018 02:00:00 -0,8 -7,0 14 8 21 11 NE 998,8 34 0,0
19.01.2018 01:00:00 -1,0 -6,2 15 8 23 12 NE 998,2 28 0,0
19.01.2018 00:00:00 -0,8 -4,3 19 10 26 14 NE 997,9 39 0,0
18.01.2018 23:00:00 -0,5 -4,2 17 9 24 13 NE 997,8 39 0,0
18.01.2018 22:00:00 -0,3 -4,7 13 7 21 12 NE 997,5 43 0,0
18.01.2018 21:00:00 -0,2 -4,8 10 5 18 10 ENE 997,1 42 0,0
18.01.2018 20:00:00 -0,4 -5,0 15 8 21 11 ENE 996,6 35 0,0
18.01.2018 19:00:00 -0,3 -4,7 15 8 23 12 E 996,3 45 0,0
18.01.2018 18:00:00 -0,4 -4,6 19 10 27 15 E 996,0 45 0,0
18.01.2018 17:00:00 -0,5 -5,1 19 10 27 14 E 996,0 29 0,0
18.01.2018 16:00:00 -0,5 -4,7 19 10 27 14 E 995,7 31 0,0
18.01.2018 15:00:00 -0,4 -4,3 18 10 28 15 E 995,6 35 0,0
18.01.2018 14:00:00 -0,6 -4,1 20 11 31 17 E 995,2 37 0,0
18.01.2018 13:00:00 -0,8 -3,0 20 11 29 15 E 995,1 10 0,1
18.01.2018 12:00:00 -0,9 -2,5 20 11 26 14 E 995,4 3,6 0,1
18.01.2018 11:00:00 -0,8 -3,3 17 9 25 14 E 995,7 4,7 0,4
18.01.2018 10:00:00 -0,3 -4,5 16 9 22 12 E 995,6 16 0,0
18.01.2018 09:00:00 -0,5 -4,9 13 7 23 13 ENE 995,6 35 0,0
18.01.2018 08:00:00 -0,5 -4,9 16 9 23 12 ENE 995,3 18 0,0
18.01.2018 07:00:00 -0,6 -4,8 16 8 24 13 E 995,1 32 0,0
18.01.2018 06:00:00 -0,9 -4,8 19 10 27 15 E 995,1 26 0,0
18.01.2018 05:00:00 -0,9 -4,3 19 10 31 17 E 994,9 25 0,0
18.01.2018 04:00:00 -1,2 -4,2 22 12 31 17 E 995,2 20 0,0
18.01.2018 03:00:00 -1,3 -4,6 16 9 33 18 ENE 995,1 22 0,0
18.01.2018 02:00:00 -1,3 -4,8 17 9 32 18 ENE 994,9 27 0,0
18.01.2018 01:00:00 -1,4 -5,1 22 12 37 20 ENE 994,7 28 0,0
18.01.2018 00:00:00 -1,3 -4,8 22 12 38 20 E 994,4 22 0,0
17.01.2018 23:00:00 -1,4 -4,7 25 13 39 21 E 994,1 24 0,0
17.01.2018 22:00:00 -1,7 -5,0 29 16 43 23 E 993,9 22 0,0
17.01.2018 21:00:00 -1,4 -5,4 30 16 41 22 E 993,3 23 0,0
17.01.2018 20:00:00 -1,5 -5,0 27 15 42 23 E 993,1 25 0,1
17.01.2018 19:00:00 -1,6 -6,2 26 14 40 22 ESE 993,0 25 0,1
17.01.2018 18:00:00 -1,9 -5,4 26 14 37 20 ESE 992,7 17 0,2
17.01.2018 17:00:00 -2,0 -6,7 26 14 38 20 ESE 992,4 22 0,0
17.01.2018 16:00:00 -2,2 -6,9 27 15 40 22 ESE 992,1 26 0,0
17.01.2018 15:00:00 -2,4 -6,4 29 16 43 23 ESE 991,8 33 0,1
17.01.2018 14:00:00 -2,6 -5,6 35 19 46 25 ESE 991,5 13 0,0
17.01.2018 13:00:00 -3,0 -5,2 37 20 51 28 ESE 991,2 4,2 0,0
17.01.2018 12:00:00 -3,1 -5,0 40 22 56 30 ESE 991,1 4,4 0,0
17.01.2018 11:00:00 -3,0 -4,3 44 24 59 32 ESE 991,1 1,4 0,1
17.01.2018 10:00:00 -3,2 -4,3 42 23 55 30 ESE 991,2 1,1 0,1
17.01.2018 09:00:00 -3,1 -4,8 40 22 55 30 ESE 990,9 6 0,1
17.01.2018 08:00:00 -3,0 -4,6 40 22 55 30 ESE 990,4 1,9 0,0
17.01.2018 07:00:00 -2,5 -4,7 44 24 56 31 ESE 990,1 14 0,0
17.01.2018 06:00:00 -2,7 -4,1 48 26 60 32 ESE 990,1 3,1 0,0
17.01.2018 05:00:00 -2,7 -3,8 45 24 61 33 ESE 990,1 1,2 0,1
17.01.2018 04:00:00 -2,5 -4,1 44 24 66 35 ESE 990,5 1,6 0,1
17.01.2018 03:00:00 -1,7 -4,0 49 26 64 35 ESE 990,4 8 0,0
17.01.2018 02:00:00 -1,7 -3,9 48 26 64 35 SE 990,6 7 0,0
17.01.2018 01:00:00 -1,4 -4,0 51 27 66 35 SE 990,7 13 0,0
17.01.2018 00:00:00 -1,8 -3,4 54 29 72 39 SE 991,2 2,2 0,0
16.01.2018 23:00:00 -1,5 -3,1 55 30 73 40 SE 991,2 3,5 0,0
16.01.2018 22:00:00 -1,6 -2,9 59 32 76 41 SE 991,6 2,3 0,0
16.01.2018 21:00:00 -1,4 -2,4 63 34 84 45 SE 991,4 1,4 0,0
16.01.2018 20:00:00 -1,1 -2,2 64 35 83 45 SE 991,6 1,7 0,0
16.01.2018 19:00:00 -0,7 -1,8 61 33 83 45 SE 991,7 1,3 0,0
16.01.2018 18:00:00 -0,4 -1,5 64 35 84 46 SE 991,7 0,9 0,0
16.01.2018 17:00:00 -0,4 -1,8 62 34 85 46 SE 991,8 2,6 0,0
16.01.2018 16:00:00 -0,5 -1,9 65 35 84 46 SE 992,1 3,1 0,0
16.01.2018 15:00:00 0,0 -2,4 63 34 84 45 SE 992,8 7 0,0
16.01.2018 14:00:00 -0,5 -3,7 65 35 89 48 SE 993,3 14 0,0
16.01.2018 13:00:00 -0,3 -4,0 67 36 87 47 SE 993,4 15 0,0
16.01.2018 12:00:00 -0,1 -3,3 61 33 89 48 SE 994,4 15 0,0
16.01.2018 11:00:00 0,0 -3,2 66 36 91 49 SE 995,2 14 0,0
16.01.2018 10:00:00 0,0 -3,2 67 36 88 47 SE 996,0 14 0,0
16.01.2018 09:00:00 0,3 -2,7 67 36 88 48 SE 996,7 14 0,0
16.01.2018 08:00:00 0,0 -2,7 67 36 85 46 SE 997,5 14 0,0
16.01.2018 07:00:00 -0,2 -2,7 64 34 85 46 SE 999,1 13 0,0
16.01.2018 06:00:00 -0,6 -3,0 64 35 85 46 SE 999,7 14 0,0
16.01.2018 05:00:00 -0,7 -2,6 64 34 85 46 SE 1000,7 10 0,0
16.01.2018 04:00:00 -0,5 -2,6 64 34 82 45 SE 1002,0 13 0,0
16.01.2018 03:00:00 -0,2 -2,6 62 33 89 48 SE 1003,9 13 0,0
16.01.2018 02:00:00 -0,1 -2,3 61 33 84 45 SSE 1005,2 12 0,0
16.01.2018 01:00:00 0,1 -2,3 61 33 84 45 SE 1006,1 12 0,0
16.01.2018 00:00:00 0,6 -3,0 58 31 79 42 SSE 1007,5 10 0,0
15.01.2018 23:00:00 -0,1 -3,5 61 33 82 44 SSE 1008,6 19 0,0
15.01.2018 22:00:00 0,2 -3,9 59 32 81 44 SSE 1009,7 21 0,0
15.01.2018 21:00:00 -0,1 -4,0 60 32 81 44 SSE 1010,5 23 0,0
15.01.2018 20:00:00 -0,1 -3,6 59 32 77 42 SSE 1012,0 25 0,0
15.01.2018 19:00:00 -0,2 -4,3 61 33 80 43 SSE 1012,9 27 0,0
15.01.2018 18:00:00 -0,2 -3,9 54 29 81 44 SSE 1014,2 29 0,0
15.01.2018 17:00:00 -0,1 -4,4 54 29 74 40 SSE 1015,7 31 0,0
15.01.2018 16:00:00 -0,1 -4,2 54 29 74 40 S 1016,8 29 0,0
15.01.2018 15:00:00 -0,1 -3,8 51 28 73 40 SSE 1017,6 24 0,0
15.01.2018 14:00:00 -0,1 -4,2 54 29 74 40 S 1018,8 25 0,0
15.01.2018 13:00:00 0,1 -4,2 55 30 72 39 SSE 1019,6 26 0,0

tt = Température de l'air
td = dewpoint
ff = Vitesse du vent
fx = gusts
dd = Direction du vent
ppp = reduced air pressure
vv = visibility
rr = Quantités de précipitations

stations d'obs. à proximité